owner,sensor,date,latitude,longitude,vertical_datum,sea_water_temperature,qcFlag 
DISL,ioos:station:DISL:DISL:1,2009-11-02T00:00:00Z,30.2513,-88.0778,-1.72,21.19,2 
DISL,ioos:station:DISL:DISL:1,2009-11-02T00:30:00Z,30.2513,-88.0778,-1.72,21.7,2 
DISL,ioos:station:DISL:DISL:1,2009-11-02T01:00:00Z,30.2513,-88.0778,-1.72,21.62,2 
DISL,ioos:station:DISL:DISL:1,2009-11-02T01:30:00Z,30.2513,-88.0778,-1.72,21.23,2 
DISL,ioos:station:DISL:DISL:1,2009-11-02T02:00:00Z,30.2513,-88.0778,-1.72,20.36,2 
DISL,ioos:station:DISL:DISL:1,2009-11-02T02:30:00Z,30.2513,-88.0778,-1.72,19.53,2 
DISL,ioos:station:DISL:DISL:1,2009-11-02T03:00:00Z,30.2513,-88.0778,-1.72,18.96,2 
DISL,ioos:station:DISL:DISL:1,2009-11-02T03:30:00Z,30.2513,-88.0778,-1.72,18.83,2 
DISL,ioos:station:DISL:DISL:1,2009-11-02T04:00:00Z,30.2513,-88.0778,-1.72,18.57,2 
DISL,ioos:station:DISL:DISL:1,2009-11-02T04:30:00Z,30.2513,-88.0778,-1.72,18.45,2 
DISL,ioos:station:DISL:DISL:1,2009-11-02T05:00:00Z,30.2513,-88.0778,-1.72,18.49,2 
DISL,ioos:station:DISL:DISL:1,2009-11-02T05:30:00Z,30.2513,-88.0778,-1.72,18.46,2 
DISL,ioos:station:DISL:DISL:1,2009-11-02T06:00:00Z,30.2513,-88.0778,-1.72,18.94,2 
DISL,ioos:station:DISL:DISL:1,2009-11-02T06:30:00Z,30.2513,-88.0778,-1.72,18.9,2 
DISL,ioos:station:DISL:DISL:1,2009-11-02T07:00:00Z,30.2513,-88.0778,-1.72,18.81,2 
DISL,ioos:station:DISL:DISL:1,2009-11-02T07:30:00Z,30.2513,-88.0778,-1.72,18.77,2 
DISL,ioos:station:DISL:DISL:1,2009-11-02T08:00:00Z,30.2513,-88.0778,-1.72,18.74,2 
DISL,ioos:station:DISL:DISL:1,2009-11-02T08:30:00Z,30.2513,-88.0778,-1.72,18.72,2 
DISL,ioos:station:DISL:DISL:1,2009-11-02T09:00:00Z,30.2513,-88.0778,-1.72,18.67,2 
DISL,ioos:station:DISL:DISL:1,2009-11-02T09:30:00Z,30.2513,-88.0778,-1.72,18.76,2 
DISL,ioos:station:DISL:DISL:1,2009-11-02T10:00:00Z,30.2513,-88.0778,-1.72,18.81,2 
DISL,ioos:station:DISL:DISL:1,2009-11-02T10:30:00Z,30.2513,-88.0778,-1.72,18.8,2 
DISL,ioos:station:DISL:DISL:1,2009-11-02T11:00:00Z,30.2513,-88.0778,-1.72,18.77,2 
DISL,ioos:station:DISL:DISL:1,2009-11-02T11:30:00Z,30.2513,-88.0778,-1.72,18.71,2 
DISL,ioos:station:DISL:DISL:1,2009-11-02T12:00:00Z,30.2513,-88.0778,-1.72,18.77,2 
DISL,ioos:station:DISL:DISL:1,2009-11-02T12:30:00Z,30.2513,-88.0778,-1.72,18.82,2 
DISL,ioos:station:DISL:DISL:1,2009-11-02T13:00:00Z,30.2513,-88.0778,-1.72,18.81,2 
DISL,ioos:station:DISL:DISL:1,2009-11-02T13:30:00Z,30.2513,-88.0778,-1.72,18.71,2 
DISL,ioos:station:DISL:DISL:1,2009-11-02T14:00:00Z,30.2513,-88.0778,-1.72,18.84,2 
DISL,ioos:station:DISL:DISL:1,2009-11-02T14:30:00Z,30.2513,-88.0778,-1.72,18.82,2 
DISL,ioos:station:DISL:DISL:1,2009-11-02T15:00:00Z,30.2513,-88.0778,-1.72,18.8,2 
DISL,ioos:station:DISL:DISL:1,2009-11-02T15:30:00Z,30.2513,-88.0778,-1.72,18.86,2 
DISL,ioos:station:DISL:DISL:1,2009-11-02T16:00:00Z,30.2513,-88.0778,-1.72,18.96,2 
DISL,ioos:station:DISL:DISL:1,2009-11-02T16:30:00Z,30.2513,-88.0778,-1.72,19.08,2 
DISL,ioos:station:DISL:DISL:1,2009-11-02T17:00:00Z,30.2513,-88.0778,-1.72,19.22,2 
DISL,ioos:station:DISL:DISL:1,2009-11-02T17:30:00Z,30.2513,-88.0778,-1.72,19.22,2 
DISL,ioos:station:DISL:DISL:1,2009-11-02T18:00:00Z,30.2513,-88.0778,-1.72,19.15,2 
DISL,ioos:station:DISL:DISL:1,2009-11-02T18:30:00Z,30.2513,-88.0778,-1.72,19.16,2 
DISL,ioos:station:DISL:DISL:1,2009-11-02T19:00:00Z,30.2513,-88.0778,-1.72,19.26,2 
DISL,ioos:station:DISL:DISL:1,2009-11-02T19:30:00Z,30.2513,-88.0778,-1.72,19.53,2 
DISL,ioos:station:DISL:DISL:1,2009-11-02T20:00:00Z,30.2513,-88.0778,-1.72,19.76,2 
DISL,ioos:station:DISL:DISL:1,2009-11-02T20:30:00Z,30.2513,-88.0778,-1.72,20.39,2 
DISL,ioos:station:DISL:DISL:1,2009-11-02T21:00:00Z,30.2513,-88.0778,-1.72,21.04,2 
DISL,ioos:station:DISL:DISL:1,2009-11-02T21:30:00Z,30.2513,-88.0778,-1.72,21.39,2 
DISL,ioos:station:DISL:DISL:1,2009-11-02T22:00:00Z,30.2513,-88.0778,-1.72,21.73,2 
DISL,ioos:station:DISL:DISL:1,2009-11-02T22:30:00Z,30.2513,-88.0778,-1.72,22.01,2 
DISL,ioos:station:DISL:DISL:1,2009-11-02T23:00:00Z,30.2513,-88.0778,-1.72,22.16,2 
DISL,ioos:station:DISL:DISL:1,2009-11-02T23:30:00Z,30.2513,-88.0778,-1.72,22.28,2 
DISL,ioos:station:DISL:DISL:1,2009-11-03T00:00:00Z,30.2513,-88.0778,-1.72,21.86,2 
DISL,ioos:station:DISL:DISL:1,2009-11-03T00:30:00Z,30.2513,-88.0778,-1.72,22.26,2 
DISL,ioos:station:DISL:DISL:1,2009-11-03T01:00:00Z,30.2513,-88.0778,-1.72,22.45,2 
DISL,ioos:station:DISL:DISL:1,2009-11-03T01:30:00Z,30.2513,-88.0778,-1.72,22.63,2 
DISL,ioos:station:DISL:DISL:1,2009-11-03T02:00:00Z,30.2513,-88.0778,-1.72,21.96,2 
DISL,ioos:station:DISL:DISL:1,2009-11-03T02:30:00Z,30.2513,-88.0778,-1.72,20.68,2 
DISL,ioos:station:DISL:DISL:1,2009-11-03T03:00:00Z,30.2513,-88.0778,-1.72,18.68,2 
DISL,ioos:station:DISL:DISL:1,2009-11-03T03:30:00Z,30.2513,-88.0778,-1.72,18.57,2 
DISL,ioos:station:DISL:DISL:1,2009-11-03T04:00:00Z,30.2513,-88.0778,-1.72,18.49,2 
DISL,ioos:station:DISL:DISL:1,2009-11-03T04:30:00Z,30.2513,-88.0778,-1.72,18.43,2 
DISL,ioos:station:DISL:DISL:1,2009-11-03T05:00:00Z,30.2513,-88.0778,-1.72,18.45,2 
DISL,ioos:station:DISL:DISL:1,2009-11-03T05:30:00Z,30.2513,-88.0778,-1.72,18.46,2 
DISL,ioos:station:DISL:DISL:1,2009-11-03T06:00:00Z,30.2513,-88.0778,-1.72,18.6,2 
DISL,ioos:station:DISL:DISL:1,2009-11-03T06:30:00Z,30.2513,-88.0778,-1.72,18.73,2 
DISL,ioos:station:DISL:DISL:1,2009-11-03T07:00:00Z,30.2513,-88.0778,-1.72,18.71,2 
DISL,ioos:station:DISL:DISL:1,2009-11-03T07:30:00Z,30.2513,-88.0778,-1.72,18.66,2 
DISL,ioos:station:DISL:DISL:1,2009-11-03T08:00:00Z,30.2513,-88.0778,-1.72,18.57,2 
DISL,ioos:station:DISL:DISL:1,2009-11-03T08:30:00Z,30.2513,-88.0778,-1.72,18.52,2 
DISL,ioos:station:DISL:DISL:1,2009-11-03T09:00:00Z,30.2513,-88.0778,-1.72,18.38,2 
DISL,ioos:station:DISL:DISL:1,2009-11-03T09:30:00Z,30.2513,-88.0778,-1.72,18.47,2 
DISL,ioos:station:DISL:DISL:1,2009-11-03T10:00:00Z,30.2513,-88.0778,-1.72,18.54,2 
DISL,ioos:station:DISL:DISL:1,2009-11-03T10:30:00Z,30.2513,-88.0778,-1.72,18.51,2 
DISL,ioos:station:DISL:DISL:1,2009-11-03T11:00:00Z,30.2513,-88.0778,-1.72,18.5,2 
DISL,ioos:station:DISL:DISL:1,2009-11-03T11:30:00Z,30.2513,-88.0778,-1.72,18.49,2 
DISL,ioos:station:DISL:DISL:1,2009-11-03T12:00:00Z,30.2513,-88.0778,-1.72,18.47,2 
DISL,ioos:station:DISL:DISL:1,2009-11-03T12:30:00Z,30.2513,-88.0778,-1.72,18.46,2 
DISL,ioos:station:DISL:DISL:1,2009-11-03T13:00:00Z,30.2513,-88.0778,-1.72,18.44,2 
DISL,ioos:station:DISL:DISL:1,2009-11-03T13:30:00Z,30.2513,-88.0778,-1.72,18.45,2 
DISL,ioos:station:DISL:DISL:1,2009-11-03T14:00:00Z,30.2513,-88.0778,-1.72,18.49,2 
DISL,ioos:station:DISL:DISL:1,2009-11-03T14:30:00Z,30.2513,-88.0778,-1.72,18.53,2 
DISL,ioos:station:DISL:DISL:1,2009-11-03T15:00:00Z,30.2513,-88.0778,-1.72,18.59,2 
DISL,ioos:station:DISL:DISL:1,2009-11-03T15:30:00Z,30.2513,-88.0778,-1.72,18.67,2 
DISL,ioos:station:DISL:DISL:1,2009-11-03T16:00:00Z,30.2513,-88.0778,-1.72,18.77,2 
DISL,ioos:station:DISL:DISL:1,2009-11-03T16:30:00Z,30.2513,-88.0778,-1.72,18.78,2 
DISL,ioos:station:DISL:DISL:1,2009-11-03T17:00:00Z,30.2513,-88.0778,-1.72,18.84,2 
DISL,ioos:station:DISL:DISL:1,2009-11-03T17:30:00Z,30.2513,-88.0778,-1.72,18.98,2 
DISL,ioos:station:DISL:DISL:1,2009-11-03T18:00:00Z,30.2513,-88.0778,-1.72,18.95,2 
DISL,ioos:station:DISL:DISL:1,2009-11-03T18:30:00Z,30.2513,-88.0778,-1.72,19.17,2 
DISL,ioos:station:DISL:DISL:1,2009-11-03T19:00:00Z,30.2513,-88.0778,-1.72,19.12,2 
DISL,ioos:station:DISL:DISL:1,2009-11-03T19:30:00Z,30.2513,-88.0778,-1.72,19.28,2 
DISL,ioos:station:DISL:DISL:1,2009-11-03T20:00:00Z,30.2513,-88.0778,-1.72,19.24,2 
DISL,ioos:station:DISL:DISL:1,2009-11-03T20:30:00Z,30.2513,-88.0778,-1.72,19.45,2 
DISL,ioos:station:DISL:DISL:1,2009-11-03T21:00:00Z,30.2513,-88.0778,-1.72,20.09,2 
DISL,ioos:station:DISL:DISL:1,2009-11-03T21:30:00Z,30.2513,-88.0778,-1.72,20.39,2 
DISL,ioos:station:DISL:DISL:1,2009-11-03T22:00:00Z,30.2513,-88.0778,-1.72,20.53,2 
DISL,ioos:station:DISL:DISL:1,2009-11-03T22:30:00Z,30.2513,-88.0778,-1.72,21.1,2 
DISL,ioos:station:DISL:DISL:1,2009-11-03T23:00:00Z,30.2513,-88.0778,-1.72,21.4,2 
DISL,ioos:station:DISL:DISL:1,2009-11-03T23:30:00Z,30.2513,-88.0778,-1.72,21.85,2 
DISL,ioos:station:DISL:DISL:1,2009-11-04T00:00:00Z,30.2513,-88.0778,-1.72,22.07,2 
DISL,ioos:station:DISL:DISL:1,2009-11-04T00:30:00Z,30.2513,-88.0778,-1.72,22.11,2 
DISL,ioos:station:DISL:DISL:1,2009-11-04T01:00:00Z,30.2513,-88.0778,-1.72,22.22,2 
DISL,ioos:station:DISL:DISL:1,2009-11-04T01:30:00Z,30.2513,-88.0778,-1.72,22.28,2 
DISL,ioos:station:DISL:DISL:1,2009-11-04T02:00:00Z,30.2513,-88.0778,-1.72,22.31,2 
DISL,ioos:station:DISL:DISL:1,2009-11-04T02:30:00Z,30.2513,-88.0778,-1.72,22.35,2 
DISL,ioos:station:DISL:DISL:1,2009-11-04T03:00:00Z,30.2513,-88.0778,-1.72,22.27,2 
DISL,ioos:station:DISL:DISL:1,2009-11-04T03:30:00Z,30.2513,-88.0778,-1.72,21.1,2 
DISL,ioos:station:DISL:DISL:1,2009-11-04T04:00:00Z,30.2513,-88.0778,-1.72,20.4,2 
DISL,ioos:station:DISL:DISL:1,2009-11-04T04:30:00Z,30.2513,-88.0778,-1.72,19.51,2 
DISL,ioos:station:DISL:DISL:1,2009-11-04T05:00:00Z,30.2513,-88.0778,-1.72,19.21,2 
DISL,ioos:station:DISL:DISL:1,2009-11-04T05:30:00Z,30.2513,-88.0778,-1.72,19.19,2 
DISL,ioos:station:DISL:DISL:1,2009-11-04T06:00:00Z,30.2513,-88.0778,-1.72,19.14,2 
DISL,ioos:station:DISL:DISL:1,2009-11-04T06:30:00Z,30.2513,-88.0778,-1.72,19.1,2 
DISL,ioos:station:DISL:DISL:1,2009-11-04T07:00:00Z,30.2513,-88.0778,-1.72,19.1,2 
DISL,ioos:station:DISL:DISL:1,2009-11-04T07:30:00Z,30.2513,-88.0778,-1.72,19.07,2 
DISL,ioos:station:DISL:DISL:1,2009-11-04T08:00:00Z,30.2513,-88.0778,-1.72,19.05,2 
DISL,ioos:station:DISL:DISL:1,2009-11-04T08:30:00Z,30.2513,-88.0778,-1.72,18.96,2 
DISL,ioos:station:DISL:DISL:1,2009-11-04T09:00:00Z,30.2513,-88.0778,-1.72,18.91,2 
DISL,ioos:station:DISL:DISL:1,2009-11-04T09:30:00Z,30.2513,-88.0778,-1.72,18.83,2 
DISL,ioos:station:DISL:DISL:1,2009-11-04T10:00:00Z,30.2513,-88.0778,-1.72,18.7,2 
DISL,ioos:station:DISL:DISL:1,2009-11-04T10:30:00Z,30.2513,-88.0778,-1.72,18.7,2 
DISL,ioos:station:DISL:DISL:1,2009-11-04T11:00:00Z,30.2513,-88.0778,-1.72,18.71,2 
DISL,ioos:station:DISL:DISL:1,2009-11-04T11:30:00Z,30.2513,-88.0778,-1.72,18.78,2 
DISL,ioos:station:DISL:DISL:1,2009-11-04T12:00:00Z,30.2513,-88.0778,-1.72,18.94,2 
DISL,ioos:station:DISL:DISL:1,2009-11-04T12:30:00Z,30.2513,-88.0778,-1.72,18.72,2 
DISL,ioos:station:DISL:DISL:1,2009-11-04T13:00:00Z,30.2513,-88.0778,-1.72,18.85,2 
DISL,ioos:station:DISL:DISL:1,2009-11-04T13:30:00Z,30.2513,-88.0778,-1.72,18.83,2 
DISL,ioos:station:DISL:DISL:1,2009-11-04T14:00:00Z,30.2513,-88.0778,-1.72,18.82,2 
DISL,ioos:station:DISL:DISL:1,2009-11-04T14:30:00Z,30.2513,-88.0778,-1.72,18.84,2 
DISL,ioos:station:DISL:DISL:1,2009-11-04T15:00:00Z,30.2513,-88.0778,-1.72,18.9,2 
DISL,ioos:station:DISL:DISL:1,2009-11-04T15:30:00Z,30.2513,-88.0778,-1.72,18.97,2 
DISL,ioos:station:DISL:DISL:1,2009-11-04T16:00:00Z,30.2513,-88.0778,-1.72,19.13,2 
DISL,ioos:station:DISL:DISL:1,2009-11-04T16:30:00Z,30.2513,-88.0778,-1.72,19.22,2 
DISL,ioos:station:DISL:DISL:1,2009-11-04T17:00:00Z,30.2513,-88.0778,-1.72,19.35,2 
DISL,ioos:station:DISL:DISL:1,2009-11-04T17:30:00Z,30.2513,-88.0778,-1.72,19.43,2 
DISL,ioos:station:DISL:DISL:1,2009-11-04T18:00:00Z,30.2513,-88.0778,-1.72,19.41,2 
DISL,ioos:station:DISL:DISL:1,2009-11-04T18:30:00Z,30.2513,-88.0778,-1.72,19.67,2 
DISL,ioos:station:DISL:DISL:1,2009-11-04T19:00:00Z,30.2513,-88.0778,-1.72,19.6,2 
DISL,ioos:station:DISL:DISL:1,2009-11-04T19:30:00Z,30.2513,-88.0778,-1.72,19.67,2 
DISL,ioos:station:DISL:DISL:1,2009-11-04T20:00:00Z,30.2513,-88.0778,-1.72,19.73,2 
DISL,ioos:station:DISL:DISL:1,2009-11-04T20:30:00Z,30.2513,-88.0778,-1.72,20.24,2 
DISL,ioos:station:DISL:DISL:1,2009-11-04T21:00:00Z,30.2513,-88.0778,-1.72,20.67,2 
DISL,ioos:station:DISL:DISL:1,2009-11-04T21:30:00Z,30.2513,-88.0778,-1.72,20.68,2 
DISL,ioos:station:DISL:DISL:1,2009-11-04T22:00:00Z,30.2513,-88.0778,-1.72,21.01,2 
DISL,ioos:station:DISL:DISL:1,2009-11-04T22:30:00Z,30.2513,-88.0778,-1.72,21.67,2 
DISL,ioos:station:DISL:DISL:1,2009-11-04T23:00:00Z,30.2513,-88.0778,-1.72,22.32,2 
DISL,ioos:station:DISL:DISL:1,2009-11-04T23:30:00Z,30.2513,-88.0778,-1.72,22.62,2 
DISL,ioos:station:DISL:DISL:1,2009-11-05T00:00:00Z,30.2513,-88.0778,-1.72,22.69,2 
DISL,ioos:station:DISL:DISL:1,2009-11-05T00:30:00Z,30.2513,-88.0778,-1.72,22.71,2 
DISL,ioos:station:DISL:DISL:1,2009-11-05T01:00:00Z,30.2513,-88.0778,-1.72,22.77,2 
DISL,ioos:station:DISL:DISL:1,2009-11-05T01:30:00Z,30.2513,-88.0778,-1.72,22.79,2 
DISL,ioos:station:DISL:DISL:1,2009-11-05T02:00:00Z,30.2513,-88.0778,-1.72,22.77,2 
DISL,ioos:station:DISL:DISL:1,2009-11-05T02:30:00Z,30.2513,-88.0778,-1.72,22.14,2 
DISL,ioos:station:DISL:DISL:1,2009-11-05T03:00:00Z,30.2513,-88.0778,-1.72,21.91,2 
DISL,ioos:station:DISL:DISL:1,2009-11-05T03:30:00Z,30.2513,-88.0778,-1.72,21.9,2 
DISL,ioos:station:DISL:DISL:1,2009-11-05T04:00:00Z,30.2513,-88.0778,-1.72,21.13,2 
DISL,ioos:station:DISL:DISL:1,2009-11-05T04:30:00Z,30.2513,-88.0778,-1.72,20.15,2 
DISL,ioos:station:DISL:DISL:1,2009-11-05T05:00:00Z,30.2513,-88.0778,-1.72,20.06,2 
DISL,ioos:station:DISL:DISL:1,2009-11-05T05:30:00Z,30.2513,-88.0778,-1.72,19.92,2 
DISL,ioos:station:DISL:DISL:1,2009-11-05T06:00:00Z,30.2513,-88.0778,-1.72,19.89,2 
DISL,ioos:station:DISL:DISL:1,2009-11-05T06:30:00Z,30.2513,-88.0778,-1.72,19.83,2 
DISL,ioos:station:DISL:DISL:1,2009-11-05T07:00:00Z,30.2513,-88.0778,-1.72,19.82,2 
DISL,ioos:station:DISL:DISL:1,2009-11-05T07:30:00Z,30.2513,-88.0778,-1.72,19.74,2 
DISL,ioos:station:DISL:DISL:1,2009-11-05T08:00:00Z,30.2513,-88.0778,-1.72,19.71,2 
DISL,ioos:station:DISL:DISL:1,2009-11-05T08:30:00Z,30.2513,-88.0778,-1.72,19.61,2 
DISL,ioos:station:DISL:DISL:1,2009-11-05T09:00:00Z,30.2513,-88.0778,-1.72,19.55,2 
DISL,ioos:station:DISL:DISL:1,2009-11-05T09:30:00Z,30.2513,-88.0778,-1.72,19.39,2 
DISL,ioos:station:DISL:DISL:1,2009-11-05T10:00:00Z,30.2513,-88.0778,-1.72,19.32,2 
DISL,ioos:station:DISL:DISL:1,2009-11-05T10:30:00Z,30.2513,-88.0778,-1.72,19.25,2 
DISL,ioos:station:DISL:DISL:1,2009-11-05T11:00:00Z,30.2513,-88.0778,-1.72,19.2,2 
DISL,ioos:station:DISL:DISL:1,2009-11-05T11:30:00Z,30.2513,-88.0778,-1.72,19.22,2 
DISL,ioos:station:DISL:DISL:1,2009-11-05T12:00:00Z,30.2513,-88.0778,-1.72,19.18,2 
DISL,ioos:station:DISL:DISL:1,2009-11-05T12:30:00Z,30.2513,-88.0778,-1.72,19.12,2 
DISL,ioos:station:DISL:DISL:1,2009-11-05T13:00:00Z,30.2513,-88.0778,-1.72,19.1,2 
DISL,ioos:station:DISL:DISL:1,2009-11-05T13:30:00Z,30.2513,-88.0778,-1.72,19.09,2 
DISL,ioos:station:DISL:DISL:1,2009-11-05T14:00:00Z,30.2513,-88.0778,-1.72,19.12,2 
DISL,ioos:station:DISL:DISL:1,2009-11-05T14:30:00Z,30.2513,-88.0778,-1.72,19.16,2 
DISL,ioos:station:DISL:DISL:1,2009-11-05T15:00:00Z,30.2513,-88.0778,-1.72,19.24,2 
DISL,ioos:station:DISL:DISL:1,2009-11-05T15:30:00Z,30.2513,-88.0778,-1.72,19.29,2 
DISL,ioos:station:DISL:DISL:1,2009-11-05T16:00:00Z,30.2513,-88.0778,-1.72,19.39,2 
DISL,ioos:station:DISL:DISL:1,2009-11-05T16:30:00Z,30.2513,-88.0778,-1.72,19.51,2 
DISL,ioos:station:DISL:DISL:1,2009-11-05T17:00:00Z,30.2513,-88.0778,-1.72,19.61,2 
DISL,ioos:station:DISL:DISL:1,2009-11-05T17:30:00Z,30.2513,-88.0778,-1.72,19.72,2 
DISL,ioos:station:DISL:DISL:1,2009-11-05T18:00:00Z,30.2513,-88.0778,-1.72,19.78,2 
DISL,ioos:station:DISL:DISL:1,2009-11-05T18:30:00Z,30.2513,-88.0778,-1.72,19.85,2 
DISL,ioos:station:DISL:DISL:1,2009-11-05T19:00:00Z,30.2513,-88.0778,-1.72,19.91,2 
DISL,ioos:station:DISL:DISL:1,2009-11-05T19:30:00Z,30.2513,-88.0778,-1.72,20.01,2 
DISL,ioos:station:DISL:DISL:1,2009-11-05T20:00:00Z,30.2513,-88.0778,-1.72,20.09,2 
DISL,ioos:station:DISL:DISL:1,2009-11-05T20:30:00Z,30.2513,-88.0778,-1.72,20.07,2 
DISL,ioos:station:DISL:DISL:1,2009-11-05T21:00:00Z,30.2513,-88.0778,-1.72,20.1,2 
DISL,ioos:station:DISL:DISL:1,2009-11-05T21:30:00Z,30.2513,-88.0778,-1.72,20.18,2 
DISL,ioos:station:DISL:DISL:1,2009-11-05T22:00:00Z,30.2513,-88.0778,-1.72,20.7,2 
DISL,ioos:station:DISL:DISL:1,2009-11-05T22:30:00Z,30.2513,-88.0778,-1.72,20.78,2 
DISL,ioos:station:DISL:DISL:1,2009-11-05T23:00:00Z,30.2513,-88.0778,-1.72,20.95,2 
DISL,ioos:station:DISL:DISL:1,2009-11-05T23:30:00Z,30.2513,-88.0778,-1.72,21.33,2 
DISL,ioos:station:DISL:DISL:1,2009-11-06T00:00:00Z,30.2513,-88.0778,-1.72,21.45,2 
DISL,ioos:station:DISL:DISL:1,2009-11-06T00:30:00Z,30.2513,-88.0778,-1.72,21.6,2 
DISL,ioos:station:DISL:DISL:1,2009-11-06T01:00:00Z,30.2513,-88.0778,-1.72,22.29,2 
DISL,ioos:station:DISL:DISL:1,2009-11-06T01:30:00Z,30.2513,-88.0778,-1.72,22.9,2 
DISL,ioos:station:DISL:DISL:1,2009-11-06T02:00:00Z,30.2513,-88.0778,-1.72,22.82,2 
DISL,ioos:station:DISL:DISL:1,2009-11-06T02:30:00Z,30.2513,-88.0778,-1.72,23.09,2 
DISL,ioos:station:DISL:DISL:1,2009-11-06T03:00:00Z,30.2513,-88.0778,-1.72,23.11,2 
DISL,ioos:station:DISL:DISL:1,2009-11-06T03:30:00Z,30.2513,-88.0778,-1.72,23.13,2 
DISL,ioos:station:DISL:DISL:1,2009-11-06T04:00:00Z,30.2513,-88.0778,-1.72,23.11,2 
DISL,ioos:station:DISL:DISL:1,2009-11-06T04:30:00Z,30.2513,-88.0778,-1.72,22.7,2 
DISL,ioos:station:DISL:DISL:1,2009-11-06T05:00:00Z,30.2513,-88.0778,-1.72,21.16,2 
DISL,ioos:station:DISL:DISL:1,2009-11-06T05:30:00Z,30.2513,-88.0778,-1.72,19.84,2 
DISL,ioos:station:DISL:DISL:1,2009-11-06T06:00:00Z,30.2513,-88.0778,-1.72,19.73,2 
DISL,ioos:station:DISL:DISL:1,2009-11-06T06:30:00Z,30.2513,-88.0778,-1.72,19.82,2 
DISL,ioos:station:DISL:DISL:1,2009-11-06T07:00:00Z,30.2513,-88.0778,-1.72,19.45,2 
DISL,ioos:station:DISL:DISL:1,2009-11-06T07:30:00Z,30.2513,-88.0778,-1.72,19.26,2 
DISL,ioos:station:DISL:DISL:1,2009-11-06T08:00:00Z,30.2513,-88.0778,-1.72,19.23,2 
DISL,ioos:station:DISL:DISL:1,2009-11-06T08:30:00Z,30.2513,-88.0778,-1.72,19.04,2 
DISL,ioos:station:DISL:DISL:1,2009-11-06T09:00:00Z,30.2513,-88.0778,-1.72,18.8,2 
DISL,ioos:station:DISL:DISL:1,2009-11-06T09:30:00Z,30.2513,-88.0778,-1.72,18.77,2 
DISL,ioos:station:DISL:DISL:1,2009-11-06T10:00:00Z,30.2513,-88.0778,-1.72,18.66,2 
DISL,ioos:station:DISL:DISL:1,2009-11-06T10:30:00Z,30.2513,-88.0778,-1.72,18.65,2 
DISL,ioos:station:DISL:DISL:1,2009-11-06T11:00:00Z,30.2513,-88.0778,-1.72,18.59,2 
DISL,ioos:station:DISL:DISL:1,2009-11-06T11:30:00Z,30.2513,-88.0778,-1.72,18.64,2 
DISL,ioos:station:DISL:DISL:1,2009-11-06T12:00:00Z,30.2513,-88.0778,-1.72,18.8,2 
DISL,ioos:station:DISL:DISL:1,2009-11-06T12:30:00Z,30.2513,-88.0778,-1.72,18.76,2 
DISL,ioos:station:DISL:DISL:1,2009-11-06T13:00:00Z,30.2513,-88.0778,-1.72,18.75,2 
DISL,ioos:station:DISL:DISL:1,2009-11-06T13:30:00Z,30.2513,-88.0778,-1.72,18.64,2 
DISL,ioos:station:DISL:DISL:1,2009-11-06T14:00:00Z,30.2513,-88.0778,-1.72,18.72,2 
DISL,ioos:station:DISL:DISL:1,2009-11-06T14:30:00Z,30.2513,-88.0778,-1.72,18.71,2 
DISL,ioos:station:DISL:DISL:1,2009-11-06T15:00:00Z,30.2513,-88.0778,-1.72,18.75,2 
DISL,ioos:station:DISL:DISL:1,2009-11-06T15:30:00Z,30.2513,-88.0778,-1.72,18.79,2 
DISL,ioos:station:DISL:DISL:1,2009-11-06T16:00:00Z,30.2513,-88.0778,-1.72,18.87,2 
DISL,ioos:station:DISL:DISL:1,2009-11-06T16:30:00Z,30.2513,-88.0778,-1.72,18.95,2 
DISL,ioos:station:DISL:DISL:1,2009-11-06T17:00:00Z,30.2513,-88.0778,-1.72,19.04,2 
DISL,ioos:station:DISL:DISL:1,2009-11-06T17:30:00Z,30.2513,-88.0778,-1.72,19.12,2 
DISL,ioos:station:DISL:DISL:1,2009-11-06T18:00:00Z,30.2513,-88.0778,-1.72,19.14,2 
DISL,ioos:station:DISL:DISL:1,2009-11-06T18:30:00Z,30.2513,-88.0778,-1.72,19.22,2 
DISL,ioos:station:DISL:DISL:1,2009-11-06T19:00:00Z,30.2513,-88.0778,-1.72,19.32,2 
DISL,ioos:station:DISL:DISL:1,2009-11-06T19:30:00Z,30.2513,-88.0778,-1.72,19.35,2 
DISL,ioos:station:DISL:DISL:1,2009-11-06T20:00:00Z,30.2513,-88.0778,-1.72,19.46,2 
DISL,ioos:station:DISL:DISL:1,2009-11-06T20:30:00Z,30.2513,-88.0778,-1.72,19.56,2 
DISL,ioos:station:DISL:DISL:1,2009-11-06T21:00:00Z,30.2513,-88.0778,-1.72,19.52,2 
DISL,ioos:station:DISL:DISL:1,2009-11-06T21:30:00Z,30.2513,-88.0778,-1.72,19.48,2 
DISL,ioos:station:DISL:DISL:1,2009-11-06T22:00:00Z,30.2513,-88.0778,-1.72,19.43,2 
DISL,ioos:station:DISL:DISL:1,2009-11-06T22:30:00Z,30.2513,-88.0778,-1.72,19.44,2 
DISL,ioos:station:DISL:DISL:1,2009-11-06T23:00:00Z,30.2513,-88.0778,-1.72,19.44,2 
DISL,ioos:station:DISL:DISL:1,2009-11-06T23:30:00Z,30.2513,-88.0778,-1.72,19.47,2 
DISL,ioos:station:DISL:DISL:1,2009-11-07T00:00:00Z,30.2513,-88.0778,-1.72,19.71,2 
DISL,ioos:station:DISL:DISL:1,2009-11-07T00:30:00Z,30.2513,-88.0778,-1.72,19.95,2 
DISL,ioos:station:DISL:DISL:1,2009-11-07T01:00:00Z,30.2513,-88.0778,-1.72,20.05,2 
DISL,ioos:station:DISL:DISL:1,2009-11-07T01:30:00Z,30.2513,-88.0778,-1.72,20.06,2 
DISL,ioos:station:DISL:DISL:1,2009-11-07T02:00:00Z,30.2513,-88.0778,-1.72,20.03,2 
DISL,ioos:station:DISL:DISL:1,2009-11-07T02:30:00Z,30.2513,-88.0778,-1.72,19.98,2 
DISL,ioos:station:DISL:DISL:1,2009-11-07T03:00:00Z,30.2513,-88.0778,-1.72,19.92,2 
DISL,ioos:station:DISL:DISL:1,2009-11-07T03:30:00Z,30.2513,-88.0778,-1.72,20.11,2 
DISL,ioos:station:DISL:DISL:1,2009-11-07T04:00:00Z,30.2513,-88.0778,-1.72,20.2,2 
DISL,ioos:station:DISL:DISL:1,2009-11-07T04:30:00Z,30.2513,-88.0778,-1.72,19.96,2 
DISL,ioos:station:DISL:DISL:1,2009-11-07T05:00:00Z,30.2513,-88.0778,-1.72,19.94,2 
DISL,ioos:station:DISL:DISL:1,2009-11-07T05:30:00Z,30.2513,-88.0778,-1.72,20.41,2 
DISL,ioos:station:DISL:DISL:1,2009-11-07T06:00:00Z,30.2513,-88.0778,-1.72,19.44,2 
DISL,ioos:station:DISL:DISL:1,2009-11-07T06:30:00Z,30.2513,-88.0778,-1.72,18.76,2 
DISL,ioos:station:DISL:DISL:1,2009-11-07T07:00:00Z,30.2513,-88.0778,-1.72,18.68,2 
DISL,ioos:station:DISL:DISL:1,2009-11-07T07:30:00Z,30.2513,-88.0778,-1.72,18.63,2 
DISL,ioos:station:DISL:DISL:1,2009-11-07T08:00:00Z,30.2513,-88.0778,-1.72,18.59,2 
DISL,ioos:station:DISL:DISL:1,2009-11-07T08:30:00Z,30.2513,-88.0778,-1.72,18.53,2 
DISL,ioos:station:DISL:DISL:1,2009-11-07T09:00:00Z,30.2513,-88.0778,-1.72,18.4,2 
DISL,ioos:station:DISL:DISL:1,2009-11-07T09:30:00Z,30.2513,-88.0778,-1.72,18.31,2 
DISL,ioos:station:DISL:DISL:1,2009-11-07T10:00:00Z,30.2513,-88.0778,-1.72,18.45,2 
DISL,ioos:station:DISL:DISL:1,2009-11-07T10:30:00Z,30.2513,-88.0778,-1.72,18.54,2 
DISL,ioos:station:DISL:DISL:1,2009-11-07T11:00:00Z,30.2513,-88.0778,-1.72,18.68,2 
DISL,ioos:station:DISL:DISL:1,2009-11-07T11:30:00Z,30.2513,-88.0778,-1.72,18.71,2 
DISL,ioos:station:DISL:DISL:1,2009-11-07T12:00:00Z,30.2513,-88.0778,-1.72,18.59,2 
DISL,ioos:station:DISL:DISL:1,2009-11-07T12:30:00Z,30.2513,-88.0778,-1.72,18.51,2 
DISL,ioos:station:DISL:DISL:1,2009-11-07T13:00:00Z,30.2513,-88.0778,-1.72,18.48,2 
DISL,ioos:station:DISL:DISL:1,2009-11-07T13:30:00Z,30.2513,-88.0778,-1.72,18.48,2 
DISL,ioos:station:DISL:DISL:1,2009-11-07T14:00:00Z,30.2513,-88.0778,-1.72,18.55,2 
DISL,ioos:station:DISL:DISL:1,2009-11-07T14:30:00Z,30.2513,-88.0778,-1.72,18.65,2 
DISL,ioos:station:DISL:DISL:1,2009-11-07T15:00:00Z,30.2513,-88.0778,-1.72,18.74,2 
DISL,ioos:station:DISL:DISL:1,2009-11-07T15:30:00Z,30.2513,-88.0778,-1.72,18.85,2 
DISL,ioos:station:DISL:DISL:1,2009-11-07T16:00:00Z,30.2513,-88.0778,-1.72,18.97,2 
DISL,ioos:station:DISL:DISL:1,2009-11-07T16:30:00Z,30.2513,-88.0778,-1.72,19.09,2 
DISL,ioos:station:DISL:DISL:1,2009-11-07T17:00:00Z,30.2513,-88.0778,-1.72,19.22,2 
DISL,ioos:station:DISL:DISL:1,2009-11-07T17:30:00Z,30.2513,-88.0778,-1.72,19.37,2 
DISL,ioos:station:DISL:DISL:1,2009-11-07T18:00:00Z,30.2513,-88.0778,-1.72,19.45,2 
DISL,ioos:station:DISL:DISL:1,2009-11-07T18:30:00Z,30.2513,-88.0778,-1.72,19.49,2 
DISL,ioos:station:DISL:DISL:1,2009-11-07T19:00:00Z,30.2513,-88.0778,-1.72,19.6,2 
DISL,ioos:station:DISL:DISL:1,2009-11-07T19:30:00Z,30.2513,-88.0778,-1.72,19.39,2 
DISL,ioos:station:DISL:DISL:1,2009-11-07T20:00:00Z,30.2513,-88.0778,-1.72,19.49,2 
DISL,ioos:station:DISL:DISL:1,2009-11-07T20:30:00Z,30.2513,-88.0778,-1.72,19.54,2 
DISL,ioos:station:DISL:DISL:1,2009-11-07T21:00:00Z,30.2513,-88.0778,-1.72,19.77,2 
DISL,ioos:station:DISL:DISL:1,2009-11-07T21:30:00Z,30.2513,-88.0778,-1.72,19.82,2 
DISL,ioos:station:DISL:DISL:1,2009-11-07T22:00:00Z,30.2513,-88.0778,-1.72,19.84,2 
DISL,ioos:station:DISL:DISL:1,2009-11-07T22:30:00Z,30.2513,-88.0778,-1.72,19.89,2 
DISL,ioos:station:DISL:DISL:1,2009-11-07T23:00:00Z,30.2513,-88.0778,-1.72,19.85,2 
DISL,ioos:station:DISL:DISL:1,2009-11-07T23:30:00Z,30.2513,-88.0778,-1.72,19.77,2 